STARLINK-4101

operational
NORAD ID: 53142 Int'l Des: 2022-083 Owner: SPXS Country: US Constellation: starlink
LEOCIRCULAR

Über STARLINK-4101

Beschreibung wird geladen...

Live-Position

3D-Globus wird geladen...

Nächste Überflüge

Höhenverlauf

Altitude vs Time

uPlot chart will show altitude changes over time

Zweizeiliger Elementsatz

1 53142U 22083L 25251.75831153 -.00000411 00000-0 -77111-5 0 9998
2 53142 53.2171 270.8159 0001341 87.3857 272.7289 15.08834735173760
Epoch: 8. Sept. 2025 • Age: 16 hours

Aktueller Status

Höhe 540.3 km
Geschwindigkeit 7.60 km/s
Subsatellitenpunkt 25.51°N, 146.28°E
Startdatum 17. Juli 2022
Alter 3.1 years
Typ internet

Technische Details

Klassifizierung Payload
Masse 297.00 kg
Trockenmasse 275.00 kg
Gesamtmasse 297.00 kg
Länge 0.20 m
Durchmesser 2.80 m
Spannweite 9.00 m
Form Box + pan
Hersteller SPXS
Bus-Typ Starlink
Phasenstatus In Orbit
Besitzer/Staat SPXS/US

Große Konstellationen

Loading constellations...